{"data":{"norad_id":51136,"intl_designator":"2022-005AJ","name":"STARLINK-3253","alt_names":[],"object_type":"PAYLOAD","status":"ACTIVE","operator":null,"country":"US","launch_date":"2022-01-19","launch_site_code":"AFETR","launch_vehicle":null,"mission":null,"orbit_class":"UNKNOWN","rcs_meters":null,"size_class":null,"mass_kg":null,"dimensions":null,"purposes":["comms"],"wikipedia_slug":null,"has_3d_model":false,"image_url":null,"decayed_at":null,"tle_current":{"epoch":"2026-09-20T02:26:12.192000Z","epoch_age_seconds":82623,"freshness":"FRESH","line1":"1 51136U 22005AJ  26263.10153000 -.00000422  00000+0 -13687-5 0  9993","line2":"2 51136  53.1589 131.2423 0001223  81.5949 278.5193 15.34379558258289","mean_motion":15.34379558,"eccentricity":0.0001223,"inclination_deg":53.1589,"raan_deg":131.2423,"arg_perigee_deg":81.5949,"mean_anomaly_deg":278.5193,"bstar":-1.3687e-6,"rev_number":25828,"period_min":93.849008382058,"perigee_km":461.92735662145,"apogee_km":463.60064100576,"semimajor_km":6840.9009988136,"source":"CELESTRAK","updated_at":"2026-09-20T09:00:39.590009Z"}}}